Lexington Weather

Lexington, Massachusetts, USA

26°F
2/26/2021 8:15am 
  • Lexington Conditions: Clear
  • Temperature: 26.2°F / -3.2°CWarmer 1.6°F than last hour.
  • Dew Point: 16.5°FIncreased 1.2°Fsince last hour.
  • Relative Humidity: 66%Decreased 1.0% since last hour.
  • Wind: Wind from NNW NNW 2 mph, 10-min avg: 2 mph, gust: 3 mph
  • Barometer: 30.37 inRising 0.04  inHg/hr Rising Slowly
  • Visibility: 10 miles
  • Snow Today: 0.0 in
  •   

Regional Weather Roundup
for Boston / Norton, MA

        
000
ASUS41 KBOX 260404
RWRBOX

REGIONAL WEATHER ROUNDUP
NATIONAL WEATHER SERVICE BOSTON/NORTON MA
1100 PM EST THU FEB 25 2021

NOTE:  "FAIR" INDICATES FEW OR NO CLOUDS BELOW 12,000 FEET WITH NO 
SIGNIFICANT WEATHER AND/OR OBSTRUCTIONS TO VISIBILITY.

MAZALL-260500-
EASTERN MASSACHUSETTS
  
CITY           SKY/WX    TMP DP  RH WIND       PRES   REMARKS
BOSTON         CLEAR     34  14  43 W12       30.19R WCI  25          
BEVERLY        CLEAR     33  17  51 W6        30.17R WCI  28          
LAWRENCE       CLEAR     30  17  58 CALM      30.19R                  
BEDFORD        CLEAR     32  14  47 W9        30.18R WCI  24          
BLUE HILL        N/A     30  13  49 W15       30.15R WCI  19          
NORWOOD        CLEAR     30  16  56 CALM      30.20R                  
MARSHFIELD     CLEAR     34  16  47 VRB5      30.19R WCI  30          
PLYMOUTH       CLEAR     33  14  45 W7        30.18R WCI  27          
TAUNTON        CLEAR     35  10  35 W7        30.19R WCI  29          
NEW BEDFORD    CLEAR     36   7  29 W12       30.19R WCI  28          
$$

MAZALL-260500-
CAPE COD AND THE ISLANDS
  
CITY           SKY/WX    TMP DP  RH WIND       PRES   REMARKS
FALMOUTH       CLEAR     34  12  40 NW12G17   30.19R WCI  25          
HYANNIS        CLEAR     36  13  38 NW7       30.17R WCI  30          
CHATHAM        CLEAR     36  17  46 W6G16     30.18R WCI  31          
PROVINCETOWN   CLEAR     37  22  54 NW17G24   30.19R WCI  27          
NANTUCKET      CLEAR     36  20  52 NW16      30.19R WCI  26          
MARTHAS VNYRD  CLEAR     36  16  44 NW9       30.20R WCI  29          
$$
 
MAZALL-260500-
CENTRAL AND WESTERN MASSACHUSETTS
  
CITY           SKY/WX    TMP DP  RH WIND       PRES   REMARKS
WORCESTER      CLEAR     30   9  41 W9        30.15R WCI  22          
FITCHBURG      CLEAR     31  14  49 W14       30.18R WCI  21          
ORANGE         CLEAR     30  11  45 W5        30.19R WCI  25          
SPRINGFIELD    CLEAR     31  10  41 W14G21    30.22R WCI  21          
WESTFIELD      CLEAR     32  12  43 NW8       30.23R WCI  25          
NORTH ADAMS    CLEAR     27  12  53 W7        30.22S WCI  19          
PITTSFIELD     CLEAR     25  11  55 W9        30.19R WCI  15          
$$
 
RIZALL-260500-
RHODE ISLAND
  
CITY           SKY/WX    TMP DP  RH WIND       PRES   REMARKS
PROVIDENCE     CLEAR     35  12  38 NW10G20   30.21R WCI  27          
NEWPORT        CLEAR     35  16  45 NW9       30.20R WCI  28          
BLOCK ISLAND   CLEAR     37  18  46 NW9       30.23R WCI  30          
SMITHFIELD     CLEAR     32   8  36 W10       30.19R WCI  24          
WESTERLY       CLEAR     30  15  53 CALM      30.23R                  
$$
 
CTZALL-260500-
CONNECTICUT
  
CITY           SKY/WX    TMP DP  RH WIND       PRES   REMARKS
BRADLEY INTL   CLEAR     32  14  47 N6        30.24R WCI  26          
HARTFORD       CLEAR     35  15  44 CALM      30.25R                  
BRIDGEPORT     CLEAR     37  14  38 W5        30.24R                  
DANBURY        CLEAR     29  16  58 CALM      30.24R                  
GROTON         CLEAR     34  15  46 NW7       30.23R WCI  28          
NEW HAVEN      CLEAR     39  14  36 NW7       30.23R                  
CHESTER        FAIR     N/A N/A N/A N3        30.21S                  
MERIDEN        CLEAR     29  18  63 CALM      30.23R                  
WILLIMANTIC    CLEAR     33  15  47 W3        30.23R                  
OXFORD         CLEAR     33  12  41 NW3       30.22R                  
$$

MEZ002-015-021-024-NHZ003-005-008-011-012-014-VTZ005-008-260500-
NORTHERN NEW ENGLAND
  
CITY           SKY/WX    TMP DP  RH WIND       PRES   REMARKS
PORTLAND ME    CLEAR     27   4  37 NW9       30.16R WCI  18          
BANGOR ME      CLEAR     20   6  55 NW14      30.11R WCI   7          
CONCORD NH     CLEAR     26  11  52 NW5       30.16R WCI  20          
MANCHESTER NH  CLEAR     32  13  45 NW7       30.15R WCI  26          
NASHUA NH      CLEAR     32  16  51 W8        30.18R WCI  25          
PORTSMOUTH NH  CLEAR     30   8  39 W8        30.15R WCI  22          
JAFFREY NH     CLEAR     28  12  51 W9        30.13R WCI  19          
KEENE NH       CLEAR     29  14  53 CALM      30.18R                  
BURLINGTON VT  CLOUDY    23   5  46 N7        30.23R WCI  15          
MT. WASHINGTON NOT AVBL                                               
$$

NYZ052-076-260500-
EASTERN NEW YORK
  
CITY           SKY/WX    TMP DP  RH WIND       PRES   REMARKS
ALBANY         CLEAR     28  15  58 NW6       30.26R WCI  22          
NEW YORK CITY  PTCLDY    42  16  34 NW8       30.25R                  
$$
 
ANZALL-260500-
MARINE OBSERVATIONS
  
STATION/POSITION TIME  TEMP    WIND        PRES    VSBY  WAVE
                       AIR SEA DIR/SP/G                  HT/PER
                 (UTC) (F)     (DEG/KT/KT) (MB)    (MI)  (FT/S)
BOSTON BUOY      0340   37 39  280/ 16/ 19 1022.1R
BUZZARDS BAY     0300          300/ 17/ 19 1023.3R
NANTUCKET SOUND  0340      36  300/ 14/ 17   N/A
MASS BAY-STELLWA 0304   38     310/ 14/ 17 1020.0R  1 7/8  2/ 4
ISLE OF SHOALS   0300   34     320/ 14/ 16 1020.6R
S OF BLOCK IS    0326      40                N/A           4/ 8
$$

......................KEY.........................
  SKY/WX - SKY CONDITION/PRESENT WEATHER
  TMP    - TEMPERATURE IN FAHRENHEIT
  DWPT   - DEWPOINT IN FAHRENHEIT
  RH     - RELATIVE HUMIDITY IN PERCENT
  WIND   - DIRECTION AND SPEED IN MPH
  PRES   - MEAN SEA LEVEL PRESSURE IN INCHES OF HG
  WCI    - WIND CHILL INDEX
  VSB    - VISIBILITY IN MILES
  HX     - HEAT INDEX
  TC     - TEMPERATURE IN CELSIUS
  VRB    - VARIABLE WIND DIRECTION
  N/A    - NOT AVAILABLE
  
      

Other recent Regional Weather Roundups

Fri Feb 26, 8:04am

Fri Feb 26, 7:04am

Fri Feb 26, 6:04am

Fri Feb 26, 5:04am

Fri Feb 26, 4:04am

Fri Feb 26, 3:04am

Fri Feb 26, 2:04am

Fri Feb 26, 1:04am

Fri Feb 26, 12:04am

Thu Feb 25, 10:04pm

Thu Feb 25, 9:04pm

Thu Feb 25, 8:05pm

Thu Feb 25, 7:05pm

Thu Feb 25, 6:04pm

Thu Feb 25, 5:04pm

Thu Feb 25, 4:05pm

Thu Feb 25, 3:05pm

Thu Feb 25, 2:04pm

Thu Feb 25, 1:04pm

Thu Feb 25, 12:05pm

Thu Feb 25, 11:04am

Thu Feb 25, 10:04am

Thu Feb 25, 9:04am

Thu Feb 25, 8:04am

Thu Feb 25, 7:04am

Thu Feb 25, 6:04am

Thu Feb 25, 5:04am

Thu Feb 25, 4:04am

Thu Feb 25, 3:04am

Thu Feb 25, 2:04am

Thu Feb 25, 1:04am

Thu Feb 25, 12:04am

Wed Feb 24, 11:04pm

Wed Feb 24, 10:05pm

Wed Feb 24, 9:04pm

Wed Feb 24, 8:04pm

Wed Feb 24, 7:04pm

Wed Feb 24, 6:04pm

Wed Feb 24, 5:04pm

Wed Feb 24, 4:04pm

Wed Feb 24, 3:04pm

Wed Feb 24, 2:05pm

Wed Feb 24, 1:05pm

Wed Feb 24, 12:05pm

Wed Feb 24, 11:04am

Wed Feb 24, 10:04am

Wed Feb 24, 9:04am

Wed Feb 24, 8:04am

Wed Feb 24, 7:04am

Wed Feb 24, 6:04am

Wed Feb 24, 5:04am

Wed Feb 24, 4:04am

Wed Feb 24, 3:04am

Wed Feb 24, 2:04am

Wed Feb 24, 1:04am

Wed Feb 24, 12:04am

Tue Feb 23, 11:04pm

Tue Feb 23, 10:04pm

Tue Feb 23, 9:04pm

Tue Feb 23, 8:05pm

Tue Feb 23, 7:04pm

Tue Feb 23, 6:04pm

Tue Feb 23, 5:04pm

Tue Feb 23, 4:05pm

Tue Feb 23, 3:04pm

Tue Feb 23, 2:04pm

Tue Feb 23, 1:04pm

Tue Feb 23, 12:04pm

Tue Feb 23, 11:04am

Tue Feb 23, 10:04am

Tue Feb 23, 9:04am

Tue Feb 23, 7:04am

Tue Feb 23, 6:04am

Tue Feb 23, 5:04am

Tue Feb 23, 4:04am

Tue Feb 23, 3:04am

Tue Feb 23, 2:04am

Tue Feb 23, 1:04am

Tue Feb 23, 12:04am

Mon Feb 22, 11:04pm

Mon Feb 22, 10:04pm

Mon Feb 22, 9:04pm

Mon Feb 22, 8:04pm

Mon Feb 22, 7:04pm

Mon Feb 22, 6:04pm

Mon Feb 22, 5:04pm

Mon Feb 22, 4:05pm

Mon Feb 22, 3:04pm

Mon Feb 22, 2:05pm

Mon Feb 22, 1:04pm

Mon Feb 22, 12:05pm

Mon Feb 22, 11:04am

Mon Feb 22, 10:04am

Mon Feb 22, 9:05am

Mon Feb 22, 8:04am

Mon Feb 22, 7:04am

Mon Feb 22, 6:04am

Mon Feb 22, 5:04am

Mon Feb 22, 4:04am

Mon Feb 22, 3:04am

Mon Feb 22, 2:04am

Mon Feb 22, 1:04am

Mon Feb 22, 12:04am

Sun Feb 21, 11:04pm

Sun Feb 21, 10:05pm

Sun Feb 21, 9:04pm

Sun Feb 21, 8:04pm

Sun Feb 21, 7:04pm

Sun Feb 21, 6:04pm

Sun Feb 21, 5:04pm

Sun Feb 21, 4:05pm

Sun Feb 21, 3:04pm

Sun Feb 21, 2:04pm

Sun Feb 21, 1:05pm

Sun Feb 21, 12:05pm

Sun Feb 21, 11:04am

Sun Feb 21, 10:05am

Sun Feb 21, 9:04am

Sun Feb 21, 8:04am

Sun Feb 21, 7:04am

Sun Feb 21, 6:04am

Sun Feb 21, 5:04am

Sun Feb 21, 4:04am

Sun Feb 21, 3:04am

Sun Feb 21, 2:04am

Sun Feb 21, 1:04am

Sun Feb 21, 12:04am

Sat Feb 20, 11:04pm

Sat Feb 20, 10:04pm

Sat Feb 20, 9:04pm

Sat Feb 20, 8:04pm

Sat Feb 20, 7:04pm

Sat Feb 20, 6:04pm

Sat Feb 20, 5:04pm

Sat Feb 20, 4:05pm

Sat Feb 20, 3:04pm

Sat Feb 20, 2:04pm

Sat Feb 20, 1:05pm

Sat Feb 20, 12:05pm

Sat Feb 20, 11:04am

Sat Feb 20, 10:05am

Sat Feb 20, 9:04am

Sat Feb 20, 8:04am

Sat Feb 20, 7:04am

Sat Feb 20, 6:04am

Sat Feb 20, 5:04am

Sat Feb 20, 4:04am

Sat Feb 20, 3:04am

Sat Feb 20, 2:04am

Sat Feb 20, 1:04am

Sat Feb 20, 12:04am

Fri Feb 19, 11:04pm

Fri Feb 19, 10:05pm

Fri Feb 19, 9:04pm

Fri Feb 19, 8:04pm

Fri Feb 19, 7:04pm

Fri Feb 19, 6:04pm

Fri Feb 19, 5:04pm

Fri Feb 19, 4:05pm

Fri Feb 19, 3:04pm

Fri Feb 19, 2:04pm

Fri Feb 19, 1:05pm

Fri Feb 19, 12:05pm

Fri Feb 19, 11:04am

Fri Feb 19, 10:04am

Fri Feb 19, 9:04am

Meta data:

ID: 13f2a3a2-edd0-4db8-962e-43f9dbc915c6
Link: https://api.weather.gov/products/13f2a3a2-edd0-4db8-962e-43f9dbc915c6